COSMOS 2251 DEB, 34823

Orbit data source: Space-Track

COSMOS 2251 DEB, 34823 is space debris in LEO originally from a launch on Wed, 16 Jun 1993 UTC launched from the Plesetsk Missile And Space Complex (PKMTR). The debris from Iridium 33, an American commercial communications satellite, has been tracked extensively since its accidental collision with the defunct Russian satellite Cosmos 2251 in 2009. This event, occurring at high speed in low Earth orbit (LEO), generated thousands of pieces of space debris, significantly increasing the risk of further collisions. The Iridium 33 debris cloud has impacted space traffic management and orbital debris mitigation strategies, making it a subject of ongoing study in space situational awareness.

Loading next visibility...
Identifier
34823, 1993-036ABN
Orbit
LEO
Country
Flag of CISCIS
Related business
Manufacturer
Unknown
Mission
Spacecraft
Bus & Motor
Unknown
Mass
Unknown
Launch date (UTC)
1993-06-16 (33 years ago)
Launch vehicle
Unknown
Launch site
Plesetsk Missile And Space Complex (PKMTR)
Object type
Payload
Rocket body
Debris
Shape & HBR
Unknown shape, 0.1 m
Radar Cross Section
Small (<0.1 m²)

Expand to show TLE details & history
Last TLE update: 1 day ago

TLE from 1 day ago
0 COSMOS 2251 DEB
1 34823U 93036ABN 25354.50594460  .00002017  00000-0  40574-3 0  9996
2 34823  74.0426  87.5785 0154186 170.4185 189.9981 14.54975940884942
Epoch: 2025-12-20T12:08Z
TLE epoch observation values (Epoch: 2025-12-20T12:08:33.613Z)
Latitude
-0.00008°
Longitude
176.10665°
Altitude
819.768 km
Speed
7.387 km/s
True Right ascension
05h 50m 18s
True Declination
0° 00' 00"
Sunlit
Object was in full shadow at epoch
Visualization orbit readout
Latitude
Unknown
Longitude
Unknown
Altitude
Unknown
Speed
Unknown
Apparent Right ascension
Unknown
Apparent Declination
Unknown
Sunlit
N/A
Visualization observer readout
Local Sidereal Time
11:41:11
Azimuth
Unknown
Elevation
Unknown
Doppler factor
Unknown
Orbital elements
Apogee altitude
816.288 km
Perigee altitude
597.801 km
Semi-major axis
7,085.182 km
Eccentricity
0.01542
Inclination
74.0426°
RAAN
87.5785°
Arg. of periapsis
170.4185°
True anomaly
189.69707°
Mean anomaly
189.9981°
Eccentric anomaly
189.84702°
Mean motion
3.63929 °/min
Orbital period
98.92 mins
BSTAR
0.00040574
Loading maneuver chart data...
Computing Atmospheric mass density...
Loading historical data...
Loading historical data...
Loading historical data...
Loading historical data...
Loading historical data...
Loading historical data...
Loading historical data...

Documentation

Showing up to 5 results
|